{"data":{"norad_id":59092,"epoch":"2026-09-20T12:32:26.459808Z","epoch_age_seconds":156824,"freshness":"FRESH","line1":"1 59092U 24041U   26263.52252847 -.00000299  00000+0 -13314-5 0  9998","line2":"2 59092  43.0028 290.8197 0001045 280.4495  79.6239 15.27578962144065","mean_motion":15.27578962,"eccentricity":0.0001045,"inclination_deg":43.0028,"raan_deg":290.8197,"arg_perigee_deg":280.4495,"mean_anomaly_deg":79.6239,"bstar":-1.3314e-6,"rev_number":14406,"period_min":94.26681276853,"perigee_km":482.33520991499,"apogee_km":483.76919845867,"semimajor_km":6861.1892041868,"source":"CELESTRAK","updated_at":"2026-09-21T09:00:34.036969Z"}}